"Pseudo-MPEC" for ALA2xH

Created 2020 Nov 30 17:07:02 UT using Find_Orb

Click here for an explanation of pseudo-MPECs

 
 Astrometry: 
     ALA2xH   C2020 11 18g@NI5.Ge)/;\KAstrometryaf4N!J?redacted;r:KBPHirO0lXYI89
     ALA2xH   C2020 11 18[vB(a%8Wa=MQlOU1!o6CFREi%uqSY-)U5j['clickGherevD@$OfI89
     ALA2xH   C2020 11 18-+R.h+AQjLjforKY#Xb3H,HO.DNNexplanationH#:U.Fcc5Ic0-I89

Station data:
(I89) iTelescope Observatory, Nerpio  (N38.165287 W2.326100)  Spain.

Orbital elements:  ALA2xH
   Perihelion 2020 Aug 10.697557 +/- 50.4 TT = 16:44:28 (JD 2459072.197557)
Epoch 2020 Nov 18.0 TT = JDT 2459171.5   Earth MOID: 0.0107   AutoNEOCP
M  95.85163228 +/- 47               (J2000 ecliptic)
n   0.96524949 +/- 0.287            Peri.  257.34548 +/- 70
a   1.01401176 +/- 0.201            Node    55.96572 +/- 49
e   0.0515486 +/- 0.182             Incl.   11.03758 +/- 12
P   1.02/372.95d           H 21.5   G  0.15   U 11.9  SR
q 0.96174083 +/- 0.236    Q 1.06628270 +/- 0.643
From 3 observations 2020 Nov. 18 (22.2 min); mean residual 1".87
Residuals in arcseconds: 
201118 I89  .25+  2.1-    201118 I89  .45-  3.7+    201118 I89  .20+  1.6-    

Ephemerides (geocentric):
Date (UTC) HH   RA              Dec         delta   r     elong  mag " sig PA
---- -- -- --  -------------   -----------  ------ ------ -----  --- ---- ---
2020 11 30 17  00 55 14.923   +42 29 20.52  .06845 1.0326 131.4 17.5  34d 169
2020 11 30 18  00 55 06.600   +42 32 33.07  .06858 1.0326 131.3 17.5  34d 169
2020 11 30 19  00 54 58.309   +42 35 44.80  .06871 1.0327 131.3 17.5  34d 169
2020 11 30 20  00 54 50.049   +42 38 55.74  .06885 1.0327 131.2 17.5  34d 169
2020 11 30 21  00 54 41.820   +42 42 05.89  .06898 1.0327 131.1 17.5  34d 170
2020 11 30 22  00 54 33.622   +42 45 15.24  .06911 1.0328 131.1 17.5  34d 170
2020 11 30 23  00 54 25.456   +42 48 23.80  .06925 1.0328 131.0 17.5  34d 170
2020 12 01 00  00 54 17.320   +42 51 31.58  .06938 1.0328 131.0 17.6  34d 170
2020 12 01 01  00 54 09.215   +42 54 38.59  .06951 1.0329 130.9 17.6  34d 170
2020 12 01 02  00 54 01.142   +42 57 44.81  .06965 1.0329 130.8 17.6  34d 170
2020 12 01 03  00 53 53.098   +43 00 50.27  .06978 1.0329 130.8 17.6  34d 170
2020 12 01 04  00 53 45.086   +43 03 54.96  .06992 1.0330 130.7 17.6  34d 170
2020 12 01 05  00 53 37.104   +43 06 58.89  .07005 1.0330 130.7 17.6  34d 170
2020 12 01 06  00 53 29.153   +43 10 02.07  .07018 1.0330 130.6 17.6  34d 170
2020 12 01 07  00 53 21.232   +43 13 04.49  .07032 1.0331 130.5 17.6  34d 170
2020 12 01 08  00 53 13.342   +43 16 06.16  .07045 1.0331 130.5 17.6  34d 170
2020 12 01 09  00 53 05.482   +43 19 07.08  .07059 1.0331 130.4 17.6  34d 170
2020 12 01 10  00 52 57.652   +43 22 07.26  .07072 1.0332 130.4 17.6  34d 170
2020 12 01 11  00 52 49.853   +43 25 06.71  .07086 1.0332 130.3 17.6  34d 170
2020 12 01 12  00 52 42.084   +43 28 05.42  .07099 1.0332 130.3 17.6  34d 170
2020 12 01 13  00 52 34.345   +43 31 03.40  .07112 1.0333 130.2 17.6  34d 170
2020 12 01 14  00 52 26.635   +43 34 00.66  .07126 1.0333 130.1 17.6  34d 170
2020 12 01 15  00 52 18.956   +43 36 57.19  .07139 1.0333 130.1 17.6  34d 170
2020 12 01 16  00 52 11.307   +43 39 53.01  .07153 1.0334 130.0 17.6  34d 170
2020 12 01 17  00 52 03.687   +43 42 48.11  .07166 1.0334 130.0 17.6  34d 170
2020 12 01 18  00 51 56.098   +43 45 42.51  .07180 1.0334 129.9 17.7  34d 170
2020 12 01 19  00 51 48.538   +43 48 36.19  .07193 1.0335 129.9 17.7  34d 170
2020 12 01 20  00 51 41.007   +43 51 29.18  .07207 1.0335 129.8 17.7  34d 170
2020 12 01 21  00 51 33.506   +43 54 21.46  .07220 1.0335 129.7 17.7  34d 170
2020 12 01 22  00 51 26.035   +43 57 13.05  .07234 1.0336 129.7 17.7  34d 170
2020 12 01 23  00 51 18.593   +44 00 03.95  .07248 1.0336 129.6 17.7  34d 170
2020 12 02 00  00 51 11.180   +44 02 54.17  .07261 1.0336 129.6 17.7  34d 170
2020 12 02 01  00 51 03.797   +44 05 43.69  .07275 1.0337 129.5 17.7  34d 171
2020 12 02 02  00 50 56.443   +44 08 32.54  .07288 1.0337 129.5 17.7  34d 171
2020 12 02 03  00 50 49.118   +44 11 20.71  .07302 1.0337 129.4 17.7  34d 171
2020 12 02 04  00 50 41.822   +44 14 08.21  .07315 1.0338 129.3 17.7  34d 171
2020 12 02 05  00 50 34.556   +44 16 55.04  .07329 1.0338 129.3 17.7  34d 171
2020 12 02 06  00 50 27.318   +44 19 41.20  .07342 1.0338 129.2 17.7  34d 171
2020 12 02 07  00 50 20.109   +44 22 26.70  .07356 1.0339 129.2 17.7  34d 171
2020 12 02 08  00 50 12.929   +44 25 11.54  .07370 1.0339 129.1 17.7  34d 171
2020 12 02 09  00 50 05.778   +44 27 55.73  .07383 1.0339 129.1 17.7  34d 171
2020 12 02 10  00 49 58.655   +44 30 39.27  .07397 1.0340 129.0 17.7  34d 171
2020 12 02 11  00 49 51.561   +44 33 22.15  .07411 1.0340 129.0 17.7  34d 171
2020 12 02 12  00 49 44.496   +44 36 04.39  .07424 1.0340 128.9 17.7  34d 171
2020 12 02 13  00 49 37.459   +44 38 46.00  .07438 1.0341 128.9 17.8  34d 171
2020 12 02 14  00 49 30.451   +44 41 26.96  .07451 1.0341 128.8 17.8  34d 171
2020 12 02 15  00 49 23.471   +44 44 07.29  .07465 1.0341 128.7 17.8  34d 171
2020 12 02 16  00 49 16.519   +44 46 46.98  .07479 1.0342 128.7 17.8  34d 171